Stündliche Wetter Celigow

Heute, 19 Januar, Dienstag

Zeit Temperatur Niederschläge Wind Luftdruck Luftfeuchtigkeit
00:00 -10°C° 0 mm 2 m/S 749 mmHg 90%
01:00 -12°C° 0 mm 3 m/S 749 mmHg 88%
02:00 -12°C° 0.1 mm 3 m/S 748 mmHg 90%
03:00 -10°C° 0.1 mm 3 m/S 748 mmHg 92%
04:00 -10°C° 0.1 mm 3 m/S 747 mmHg 94%
05:00 -9°C° 0.4 mm 3 m/S 747 mmHg 94%
06:00 -8°C° 0.4 mm 3 m/S 747 mmHg 95%
07:00 -7°C° 0 mm 3 m/S 747 mmHg 95%
08:00 -6°C° 0.4 mm 3 m/S 746 mmHg 96%
09:00 -5°C° 0.4 mm 3 m/S 746 mmHg 96%
10:00 -4°C° 0.4 mm 3 m/S 746 mmHg 97%
11:00 -2°C° 0.3 mm 3 m/S 746 mmHg 97%
12:00 -1°C° 0.3 mm 3 m/S 746 mmHg 98%
13:00 -1°C° 0.3 mm 3 m/S 745 mmHg 98%
14:00 -1°C° 0 mm 3 m/S 745 mmHg 98%
15:00 0°C° 0 mm 3 m/S 744 mmHg 98%
16:00 0°C° 0 mm 3 m/S 744 mmHg 97%
17:00 -1°C° 0.1 mm 3 m/S 744 mmHg 97%
18:00 -1°C° 0.1 mm 3 m/S 744 mmHg 98%
19:00 -2°C° 0.1 mm 4 m/S 743 mmHg 98%
20:00 -2°C° 0.2 mm 4 m/S 743 mmHg 97%
21:00 -2°C° 0.2 mm 4 m/S 743 mmHg 96%
22:00 -2°C° 0.2 mm 4 m/S 743 mmHg 96%
23:00 -2°C° 0 mm 4 m/S 742 mmHg 95%

Morgen, 20 Januar, Mittwoch

Zeit Temperatur Niederschläge Wind Luftdruck Luftfeuchtigkeit
00:00 -2°C° 0 mm 4 m/S 742 mmHg 95%
01:00 -3°C° 0 mm 4 m/S 742 mmHg 94%
02:00 -2°C° 0.2 mm 4 m/S 742 mmHg 95%
03:00 -2°C° 0.2 mm 4 m/S 741 mmHg 96%
04:00 -2°C° 0.2 mm 4 m/S 741 mmHg 97%
05:00 -1°C° 0.2 mm 4 m/S 741 mmHg 97%
06:00 -1°C° 0.2 mm 4 m/S 741 mmHg 98%
07:00 -1°C° 0.2 mm 4 m/S 741 mmHg 98%
08:00 0°C° 0 mm 4 m/S 742 mmHg 98%
09:00 0°C° 0 mm 4 m/S 742 mmHg 99%
10:00 0°C° 0 mm 5 m/S 742 mmHg 99%
11:00 0°C° 0 mm 5 m/S 742 mmHg 99%
12:00 0°C° 0 mm 5 m/S 742 mmHg 99%
13:00 0°C° 0 mm 5 m/S 742 mmHg 99%
14:00 0°C° 0 mm 5 m/S 742 mmHg 98%
15:00 0°C° 0 mm 5 m/S 742 mmHg 97%
16:00 0°C° 0 mm 5 m/S 742 mmHg 95%
17:00 0°C° 0 mm 5 m/S 742 mmHg 92%
18:00 0°C° 0 mm 5 m/S 742 mmHg 89%
19:00 0°C° 0 mm 5 m/S 742 mmHg 86%
20:00 0°C° 0 mm 5 m/S 742 mmHg 83%
21:00 0°C° 0 mm 5 m/S 741 mmHg 81%
22:00 0°C° 0 mm 5 m/S 741 mmHg 79%
23:00 0°C° 0 mm 5 m/S 741 mmHg 79%

übermorgen, 21 Januar, Donnerstag

Zeit Temperatur Niederschläge Wind Luftdruck Luftfeuchtigkeit
00:00 -1°C° 0 mm 5 m/S 741 mmHg 79%
01:00 -1°C° 0 mm 5 m/S 741 mmHg 78%
02:00 -1°C° 0 mm 5 m/S 741 mmHg 80%
03:00 -1°C° 0 mm 5 m/S 741 mmHg 82%
04:00 -1°C° 0 mm 5 m/S 741 mmHg 83%
05:00 -1°C° 0 mm 5 m/S 741 mmHg 85%
06:00 -1°C° 0 mm 5 m/S 741 mmHg 86%
07:00 -1°C° 0 mm 5 m/S 741 mmHg 88%
08:00 0°C° 0 mm 5 m/S 741 mmHg 88%
09:00 0°C° 0 mm 5 m/S 741 mmHg 89%
10:00 0°C° 0 mm 5 m/S 741 mmHg 90%
11:00 +1°C° 0 mm 5 m/S 741 mmHg 90%
12:00 +1°C° 0 mm 5 m/S 741 mmHg 91%
13:00 +1°C° 0 mm 4 m/S 741 mmHg 92%
14:00 +1°C° 0 mm 4 m/S 740 mmHg 91%
15:00 0°C° 0 mm 4 m/S 740 mmHg 91%
16:00 +1°C° 0 mm 3 m/S 739 mmHg 91%
17:00 0°C° 0 mm 4 m/S 739 mmHg 90%
18:00 0°C° 0 mm 4 m/S 739 mmHg 88%
19:00 0°C° 0 mm 5 m/S 739 mmHg 87%
20:00 -1°C° 0 mm 4 m/S 739 mmHg 88%
21:00 -1°C° 0 mm 4 m/S 739 mmHg 89%
22:00 -1°C° 0 mm 4 m/S 738 mmHg 89%
23:00 -1°C° 0 mm 4 m/S 738 mmHg 88%

22 Januar, Freitag

Zeit Temperatur Niederschläge Wind Luftdruck Luftfeuchtigkeit
00:00 -1°C° 0 mm 4 m/S 738 mmHg 87%
01:00 -1°C° 0 mm 4 m/S 738 mmHg 86%
02:00 -1°C° 0 mm 4 m/S 737 mmHg 86%
03:00 -1°C° 0 mm 4 m/S 737 mmHg 87%
04:00 0°C° 0 mm 4 m/S 736 mmHg 87%
05:00 0°C° 0 mm 4 m/S 736 mmHg 87%
06:00 0°C° 0 mm 4 m/S 735 mmHg 87%
07:00 0°C° 0 mm 4 m/S 735 mmHg 86%
08:00 0°C° 0 mm 4 m/S 734 mmHg 88%
09:00 +1°C° 0 mm 4 m/S 734 mmHg 89%
10:00 +1°C° 0 mm 5 m/S 734 mmHg 90%
11:00 +1°C° 0.1 mm 5 m/S 734 mmHg 92%
12:00 +1°C° 0.1 mm 5 m/S 734 mmHg 93%
13:00 +2°C° 0.1 mm 5 m/S 733 mmHg 94%
14:00 +1°C° 0 mm 5 m/S 734 mmHg 92%
15:00 +1°C° 0 mm 5 m/S 734 mmHg 90%
16:00 +1°C° 0 mm 5 m/S 734 mmHg 88%
17:00 0°C° 0 mm 4 m/S 734 mmHg 89%
18:00 0°C° 0 mm 4 m/S 735 mmHg 89%
19:00 +1°C° 0 mm 3 m/S 735 mmHg 89%
20:00 +1°C° 0 mm 3 m/S 735 mmHg 90%
21:00 0°C° 0 mm 3 m/S 736 mmHg 90%
22:00 0°C° 0 mm 3 m/S 736 mmHg 91%
23:00 0°C° 0 mm 3 m/S 736 mmHg 91%

23 Januar, Samstag

Zeit Temperatur Niederschläge Wind Luftdruck Luftfeuchtigkeit
00:00 +1°C° 0 mm 2 m/S 736 mmHg 91%
01:00 +1°C° 0 mm 2 m/S 736 mmHg 91%
02:00 +1°C° 0 mm 2 m/S 736 mmHg 91%
03:00 +1°C° 0 mm 2 m/S 736 mmHg 91%
04:00 +1°C° 0 mm 2 m/S 736 mmHg 91%
05:00 +1°C° 0 mm 2 m/S 736 mmHg 91%
06:00 +1°C° 0 mm 2 m/S 737 mmHg 91%
07:00 +1°C° 0 mm 2 m/S 737 mmHg 90%
08:00 +1°C° 0 mm 2 m/S 737 mmHg 90%
09:00 +3°C° 0 mm 1 m/S 737 mmHg 91%
10:00 +3°C° 0 mm 1 m/S 736 mmHg 91%
11:00 +3°C° 0.4 mm 1 m/S 736 mmHg 93%
12:00 +2°C° 0.4 mm 2 m/S 736 mmHg 94%
13:00 +2°C° 0.4 mm 2 m/S 735 mmHg 96%
14:00 +1°C° 0.5 mm 3 m/S 735 mmHg 96%
15:00 0°C° 0.5 mm 3 m/S 734 mmHg 97%
16:00 -1°C° 0.5 mm 4 m/S 733 mmHg 97%
17:00 -1°C° 1.1 mm 4 m/S 733 mmHg 98%
18:00 -1°C° 1.1 mm 4 m/S 732 mmHg 98%
19:00 -1°C° 1.1 mm 4 m/S 731 mmHg 98%
20:00 +1°C° 0.3 mm 3 m/S 731 mmHg 98%
21:00 +1°C° 0.3 mm 3 m/S 730 mmHg 97%
22:00 +1°C° 0.3 mm 3 m/S 729 mmHg 97%
23:00 +1°C° 0.2 mm 3 m/S 729 mmHg 96%

24 Januar, Sonntag

Zeit Temperatur Niederschläge Wind Luftdruck Luftfeuchtigkeit
00:00 +1°C° 0.2 mm 3 m/S 728 mmHg 96%
01:00 +1°C° 0.2 mm 3 m/S 727 mmHg 95%
02:00 +1°C° 0 mm 3 m/S 727 mmHg 95%
03:00 +1°C° 0 mm 3 m/S 726 mmHg 95%
04:00 +1°C° 0 mm 3 m/S 725 mmHg 94%
05:00 +1°C° 0.2 mm 3 m/S 725 mmHg 95%
06:00 +1°C° 0.2 mm 3 m/S 725 mmHg 95%
07:00 +1°C° 0.2 mm 3 m/S 725 mmHg 96%
08:00 0°C° 0.3 mm 4 m/S 725 mmHg 96%
09:00 0°C° 0.3 mm 4 m/S 726 mmHg 96%
10:00 0°C° 0.3 mm 5 m/S 726 mmHg 96%
11:00 -1°C° 0.1 mm 6 m/S 726 mmHg 96%
12:00 -2°C° 0.1 mm 7 m/S 726 mmHg 96%
13:00 -2°C° 0.1 mm 8 m/S 726 mmHg 96%
14:00 -2°C° 0 mm 8 m/S 727 mmHg 92%
15:00 -2°C° 0 mm 7 m/S 727 mmHg 89%
16:00 -2°C° 0 mm 7 m/S 727 mmHg 85%
17:00 -2°C° 0 mm 7 m/S 728 mmHg 87%
18:00 -2°C° 0 mm 7 m/S 728 mmHg 89%
19:00 -2°C° 0 mm 8 m/S 728 mmHg 91%
20:00 -4°C° 0.2 mm 8 m/S 728 mmHg 93%
21:00 -4°C° 0.2 mm 8 m/S 728 mmHg 94%
22:00 -4°C° 0.2 mm 9 m/S 728 mmHg 95%
23:00 -4°C° 0.1 mm 9 m/S 728 mmHg 95%
Mehr zeigen

Wir brauchen deine Erlaubnis

Meteoprog und unser Service Anbieter werden persönliche Daten aufbewahren, so wie Cookies, Geräte Bezeichnung oder ähnliche Technologien von deinem Gerät und Prozess, so wie Persönliche Daten Inhalte und Werbungen, genauso wie social Media und den Verkehr zu analysieren.

  • Aufbewahrung und/oder Zugang zu deiner Geräte Informationen.

    Cookies, Geräte Bezeichnung oder andere Informationen, können aufbewahrt oder Zugang zu deinem Gerät erhalten, für den Grund, der oben angegeben wird.

  • Personalisierte Werbung und Inhalte, Messungen, Einblick in das Publikum und Produkt Entwicklung.

    Werbungen und Inhalte können personalisiert werden, basierend auf ein Profil. Mehr Daten können besser personalisierte Werbungen und Inhalte hinzufügen. Werbung und Inhalte können gezeigt und gemessen werden. Einblicke über das Publikum, welche die Werbung gesehen haben und den Inhalt, können abgeleitet werden. So wie Daten können genutzt werden, um es zu verbessern oder die Benutzer Erfahrung zu verbessern das System und die Software.

Wenn du “Ich stimme zu” klickst, erlaubst du uns, die Cookies zu benutzen die Geräte Bezeichnung, den Web oder ähnliche Technologien zu benutzen. Deine Settings, können in deinem Gerät bei deinem Browser geändert werden.

Für den bestimmten Zweck, berechtigten Interessen beruhen darauf, mehr als auf den Inhalt. Du kannst mehr darüber in unseren Privaten und Cookie Politik lesen.